QPF
0.00 0.00 0.00 0.00 0.00 0.00 0.00 0.00 0.00 0.00 0.00 0.00 0.00 0.00 0.00 0.00 0.00 0.00 0.00 0.00 0.00 0.00 0.00 0.00 0.00 0.00 0.00 0.00 0.00 0.00 0.00 0.00 0.00 0.00 0.01 0.00 0.00 0.00 0.00 0.01 0.00 0.00 0.00 0.00 0.00
0.00 0.00 0.00 0.00 0.00 0.00 0.00 0.00 0.00 0.00 0.00 0.00 0.00 0.00 0.00 0.00 0.00 0.00 0.00 0.00 0.00 0.00 0.00 0.00 0.00 0.00 0.00 0.00 0.00 0.00 0.00 0.00 0.00 0.00 0.00 0.00 0.01 0.00 0.00 0.01 0.01 0.00 0.00 0.00 0.00
0.00 0.00 0.00 0.00 0.00 0.00 0.00 0.00 0.00 0.00 0.00 0.00 0.00 0.00 0.00 0.00 0.00 0.00 0.00 0.00 0.00 0.00 0.00 0.00 0.00 0.00 0.00 0.00 0.00 0.00 0.00 0.00 0.00 0.00 0.00 0.00 0.00 0.00 0.02 0.01 0.02 0.02 0.00 0.00 0.00
0.00 0.00 0.00 0.00 0.00 0.00 0.00 0.00 0.00 0.00 0.00 0.00 0.00 0.00 0.00 0.00 0.00 0.00 0.00 0.00 0.00 0.00 0.00 0.00 0.00 0.00 0.00 0.00 0.00 0.00 0.00 0.00 0.00 0.00 0.00 0.00 0.01 0.00 0.00 0.00 0.01 0.01 0.00 0.00 0.00
0.00 0.00 0.00 0.00 0.00 0.00 0.00 0.00 0.00 0.00 0.00 0.00 0.00 0.00 0.00 0.00 0.00 0.00 0.00 0.00 0.00 0.00 0.00 0.00 0.00 0.00 0.00 0.00 0.00 0.00 0.00 0.00 0.00 0.00 0.00 0.00 0.01 0.01 0.00 0.00 0.00 0.00 0.00 0.00 0.02
0.00 0.00 0.00 0.00 0.00 0.00 0.00 0.00 0.00 0.00 0.00 0.00 0.00 0.00 0.00 0.00 0.00 0.00 0.00 0.00 0.00 0.00 0.00 0.00 0.00 0.00 0.00 0.00 0.00 0.00 0.00 0.00 0.00 0.00 0.00 0.00 0.00 0.00 0.00 0.00 0.00 0.00 0.00 0.00 0.01
0.00 0.00 0.00 0.00 0.00 0.00 0.00 0.00 0.00 0.00 0.00 0.00 0.00 0.00 0.00 0.00 0.00 0.00 0.00 0.00 0.00 0.00 0.00 0.00 0.00 0.00 0.00 0.00 0.00 0.00 0.00 0.00 0.00 0.00 0.00 0.00 0.00 0.00 0.00 0.00 0.00 0.00 0.00 0.00 0.00
0.00 0.00 0.00 0.00 0.00 0.00 0.00 0.00 0.00 0.00 0.00 0.00 0.00 0.00 0.00 0.00 0.00 0.00 0.00 0.00 0.00 0.00 0.00 0.00 0.00 0.00 0.00 0.00 0.00 0.00 0.00 0.00 0.00 0.00 0.00 0.00 0.01 0.00 0.00 0.00 0.00 0.00 0.00 0.00 0.00
0.00 0.00 0.00 0.00 0.00 0.00 0.00 0.00 0.00 0.00 0.00 0.00 0.00 0.00 0.00 0.00 0.00 0.00 0.00 0.00 0.00 0.00 0.00 0.00 0.00 0.00 0.00 0.00 0.00 0.00 0.00 0.00 0.00 0.00 0.00 0.01 0.03 0.00 0.00 0.00 0.00 0.00 0.00 0.00 0.00
0.00 0.00 0.00 0.00 0.00 0.00 0.00 0.00 0.00 0.00 0.00 0.00 0.00 0.00 0.00 0.00 0.00 0.00 0.00 0.00 0.00 0.00 0.00 0.00 0.00 0.00 0.00 0.00 0.00 0.00 0.00 0.00 0.00 0.00 0.00 0.00 0.00 0.00 0.00 0.00 0.00 0.00 0.05 0.00 0.00
0.00 0.00 0.00 0.00 0.00 0.00 0.00 0.00 0.00 0.00 0.00 0.00 0.00 0.00 0.00 0.00 0.00 0.00 0.00 0.00 0.00 0.00 0.00 0.00 0.00 0.00 0.00 0.00 0.00 0.00 0.00 0.00 0.00 0.00 0.00 0.00 0.00 0.00 0.00 0.01 0.00 0.00 0.00 0.00 0.00
0.00 0.00 0.00 0.00 0.00 0.00 0.00 0.00 0.00 0.00 0.00 0.00 0.00 0.00 0.00 0.00 0.00 0.00 0.00 0.00 0.00 0.00 0.00 0.00 0.00 0.00 0.00 0.00 0.00 0.00 0.00 0.00 0.00 0.00 0.00 0.00 0.00 0.01 0.03 0.03 0.00 0.00 0.00 0.01 0.00
0.00 0.00 0.00 0.00 0.00 0.00 0.00 0.00 0.00 0.00 0.00 0.00 0.00 0.00 0.00 0.00 0.00 0.00 0.00 0.00 0.00 0.00 0.00 0.00 0.00 0.00 0.00 0.00 0.00 0.00 0.00 0.00 0.00 0.00 0.00 0.00 0.02 0.03 0.06 0.05 0.02 0.00 0.01 0.00 0.00
0.00 0.00 0.00 0.00 0.00 0.00 0.00 0.00 0.00 0.00 0.00 0.00 0.00 0.00 0.00 0.00 0.00 0.00 0.00 0.00 0.00 0.00 0.00 0.00 0.00 0.00 0.00 0.00 0.00 0.00 0.00 0.00 0.00 0.00 0.00 0.00 0.02 0.02 0.01 0.02 0.03 0.00 0.00 0.00 0.00
0.00 0.00 0.00 0.00 0.00 0.00 0.00 0.00 0.00 0.00 0.00 0.00 0.00 0.00 0.00 0.00 0.00 0.00 0.00 0.00 0.00 0.00 0.00 0.00 0.00 0.00 0.00 0.00 0.00 0.00 0.00 0.00 0.00 0.00 0.00 0.00 0.00 0.01 0.01 0.02 0.03 0.00 0.00 0.00 0.00
0.00 0.00 0.00 0.00 0.00 0.00 0.00 0.00 0.00 0.00 0.00 0.00 0.00 0.00 0.00 0.00 0.00 0.00 0.00 0.00 0.00 0.00 0.00 0.00 0.00 0.00 0.00 0.00 0.00 0.00 0.00 0.00 0.00 0.00 0.00 0.01 0.00 0.02 0.01 0.02 0.02 0.00 0.00 0.00 0.00
0.00 0.00 0.00 0.00 0.00 0.00 0.00 0.00 0.00 0.00 0.00 0.00 0.00 0.00 0.00 0.00 0.00 0.00 0.00 0.00 0.00 0.00 0.00 0.00 0.00 0.00 0.00 0.00 0.00 0.00 0.00 0.00 0.00 0.00 0.00 0.00 0.01 0.00 0.00 0.01 0.01 0.00 0.00 0.00 0.00
0.00 0.00 0.00 0.00 0.00 0.00 0.00 0.00 0.00 0.00 0.00 0.00 0.00 0.00 0.00 0.00 0.00 0.00 0.00 0.00 0.00 0.00 0.00 0.00 0.00 0.00 0.00 0.00 0.00 0.00 0.00 0.00 0.00 0.00 0.00 0.00 0.00 0.01 0.00 0.00 0.00 0.00 0.00 0.00 0.00
0.00 0.00 0.00 0.00 0.00 0.00 0.00 0.00 0.00 0.00 0.00 0.00 0.00 0.00 0.00 0.00 0.00 0.00 0.00 0.00 0.00 0.00 0.00 0.00 0.00 0.00 0.00 0.00 0.00 0.00 0.00 0.00 0.00 0.00 0.00 0.00 0.00 0.01 0.00 0.00 0.00 0.00 0.00 0.00 0.00
0.00 0.00 0.00 0.00 0.00 0.00 0.00 0.00 0.00 0.00 0.00 0.00 0.00 0.00 0.00 0.00 0.00 0.00 0.00 0.00 0.00 0.00 0.00 0.00 0.00 0.00 0.00 0.00 0.00 0.00 0.00 0.00 0.00 0.00 0.00 0.00 0.01 0.01 0.00 0.00 0.00 0.00 0.00 0.00 0.00
0.00 0.00 0.00 0.00 0.00 0.00 0.00 0.00 0.00 0.00 0.00 0.00 0.00 0.00 0.00 0.00 0.00 0.00 0.00 0.00 0.00 0.00 0.00 0.00 0.00 0.00 0.00 0.00 0.00 0.00 0.00 0.00 0.00 0.00 0.00 0.00 0.00 0.00 0.00 0.00 0.00 0.00 0.00 0.00 0.00
0.00 0.00 0.00 0.00 0.00 0.00 0.00 0.00 0.00 0.00 0.00 0.00 0.00 0.00 0.00 0.00 0.00 0.00 0.00 0.00 0.00 0.00 0.00 0.00 0.00 0.00 0.00 0.00 0.00 0.00 0.00 0.00 0.00 0.00 0.00 0.00 0.00 0.00 0.00 0.00 0.00 0.00 0.00 0.00 0.00
0.00 0.00 0.00 0.00 0.00 0.00 0.00 0.00 0.00 0.00 0.00 0.00 0.00 0.00 0.00 0.00 0.00 0.00 0.00 0.00 0.00 0.00 0.00 0.00 0.00 0.00 0.00 0.00 0.00 0.00 0.00 0.00 0.00 0.00 0.00 0.00 0.00 0.00 0.00 0.00 0.00 0.00 0.00 0.00 0.00
0.00 0.00 0.00 0.00 0.00 0.00 0.00 0.00 0.00 0.00 0.00 0.00 0.00 0.00 0.00 0.00 0.00 0.00 0.00 0.00 0.00 0.00 0.00 0.00 0.00 0.00 0.00 0.00 0.00 0.00 0.00 0.00 0.00 0.00 0.00 0.00 0.00 0.00 0.00 0.00 0.00 0.00 0.00 0.00 0.00
0.00 0.00 0.00 0.00 0.00 0.00 0.00 0.00 0.00 0.00 0.00 0.00 0.00 0.00 0.00 0.00 0.00 0.00 0.00 0.00 0.00 0.00 0.00 0.00 0.00 0.00 0.00 0.00 0.00 0.00 0.00 0.00 0.00 0.00 0.00 0.00 0.00 0.00 0.00 0.00 0.00 0.00 0.00 0.00 0.00
0.00 0.00 0.00 0.00 0.00 0.00 0.00 0.00 0.00 0.00 0.00 0.00 0.00 0.00 0.00 0.00 0.00 0.00 0.00 0.00 0.00 0.00 0.00 0.00 0.00 0.00 0.00 0.00 0.00 0.00 0.00 0.00 0.00 0.00 0.00 0.00 0.00 0.00 0.00 0.00 0.00 0.00 0.00 0.00 0.00
0.00 0.00 0.00 0.00 0.00 0.00 0.00 0.00 0.00 0.00 0.00 0.00 0.00 0.00 0.00 0.00 0.00 0.00 0.00 0.00 0.00 0.00 0.00 0.00 0.00 0.00 0.00 0.00 0.00 0.00 0.00 0.00 0.00 0.00 0.00 0.00 0.00 0.00 0.00 0.00 0.00 0.00 0.00 0.00 0.00
MSLP
1018.95 1018.88 1018.80 1018.53 1018.23 1017.93 1017.53 1017.15 1016.89 1016.49 1016.16 1015.69 1014.99 1014.44 1013.98 1013.58 1012.19 1011.09 1009.56 1008.74 1008.29 1008.37 1008.43 1007.50 1006.33 1005.78 1004.63 1003.54 1002.31 1001.77 1002.53 1004.16 1003.46 1003.87 1005.00 1005.39 1007.72 1007.89 1008.36 1009.41 1008.01 1007.66 1007.26 1008.38 1009.04
1018.97 1018.88 1018.73 1018.49 1018.22 1017.83 1017.48 1017.07 1016.81 1016.39 1016.06 1015.54 1014.90 1014.30 1013.99 1013.61 1011.84 1009.55 1008.82 1008.38 1008.20 1008.33 1008.08 1006.87 1005.37 1004.36 1003.35 1002.19 1001.43 1001.32 1001.92 1001.72 1002.38 1003.34 1005.52 1009.03 1009.21 1009.52 1009.85 1010.22 1009.71 1008.25 1008.23 1009.06 1009.50
1018.88 1018.71 1018.56 1018.39 1018.16 1017.76 1017.39 1017.00 1016.72 1016.26 1015.92 1015.43 1014.76 1014.15 1013.85 1013.60 1011.03 1008.18 1008.38 1008.35 1008.13 1008.32 1007.97 1006.57 1004.88 1003.69 1002.53 1001.34 1001.16 1001.05 1001.31 1001.76 1002.51 1004.22 1005.80 1007.45 1010.15 1010.10 1009.72 1010.37 1010.47 1009.14 1008.49 1009.19 1010.86
1018.77 1018.63 1018.44 1018.29 1018.01 1017.65 1017.31 1016.90 1016.55 1016.12 1015.77 1015.37 1014.68 1014.06 1013.13 1012.61 1009.25 1007.91 1008.20 1008.25 1008.21 1008.01 1007.66 1005.99 1004.59 1003.39 1002.26 1001.19 1001.50 1001.46 1001.78 1002.53 1003.18 1004.86 1006.05 1008.57 1009.74 1010.67 1007.23 1008.25 1008.52 1009.04 1008.49 1010.89 1011.15
1018.57 1018.56 1018.26 1018.11 1017.82 1017.54 1017.18 1016.70 1016.34 1016.04 1015.65 1015.32 1014.70 1014.19 1012.67 1010.36 1007.53 1007.58 1008.04 1008.17 1008.01 1007.86 1007.05 1005.21 1003.77 1002.71 1002.06 1001.28 1001.76 1001.78 1002.54 1002.81 1003.91 1006.07 1007.55 1008.46 1009.02 1010.41 1006.08 1006.88 1008.00 1007.91 1009.94 1011.39 1012.98
1018.62 1018.45 1018.11 1017.87 1017.64 1017.37 1016.95 1016.53 1016.14 1015.85 1015.53 1015.19 1014.75 1014.34 1012.68 1009.11 1006.32 1006.76 1007.09 1007.27 1006.81 1006.86 1006.07 1004.72 1003.52 1002.96 1002.29 1001.93 1002.32 1003.20 1003.69 1004.23 1005.10 1006.78 1007.49 1007.45 1007.27 1006.63 1006.47 1006.81 1007.95 1008.82 1010.11 1011.47 1012.51
1018.41 1018.07 1017.85 1017.66 1017.37 1017.09 1016.74 1016.28 1015.88 1015.67 1015.37 1015.00 1014.79 1014.17 1011.44 1007.81 1006.31 1006.20 1006.50 1006.32 1006.00 1005.87 1004.99 1004.28 1003.79 1003.51 1002.78 1002.96 1003.61 1004.08 1004.33 1005.12 1006.80 1006.84 1008.04 1007.49 1007.64 1007.22 1007.18 1007.69 1008.77 1010.04 1010.73 1011.62 1012.50
1018.13 1017.79 1017.54 1017.33 1017.14 1016.80 1016.42 1016.02 1015.61 1015.39 1015.08 1014.76 1014.66 1013.61 1009.64 1006.42 1006.28 1006.13 1006.09 1005.73 1005.59 1005.40 1004.94 1004.62 1004.39 1004.10 1003.53 1003.25 1004.16 1005.08 1006.51 1007.14 1006.66 1006.15 1007.31 1007.15 1007.80 1007.90 1007.71 1008.30 1009.71 1010.93 1011.38 1012.35 1013.10
1017.94 1017.66 1017.28 1017.17 1016.90 1016.54 1016.13 1015.73 1015.21 1015.01 1014.71 1014.49 1013.88 1012.23 1007.91 1006.77 1006.22 1005.70 1005.66 1005.28 1005.37 1005.14 1005.00 1004.84 1004.62 1004.12 1003.61 1003.81 1004.96 1005.19 1006.29 1007.20 1006.59 1006.06 1006.54 1006.80 1007.69 1008.47 1007.84 1008.57 1009.84 1011.09 1011.97 1012.61 1013.39
1017.49 1017.25 1017.05 1016.83 1016.64 1016.27 1015.81 1015.28 1014.57 1014.62 1013.87 1013.41 1012.25 1010.84 1007.72 1005.83 1005.32 1005.25 1005.27 1004.83 1004.92 1004.77 1004.55 1004.49 1004.20 1003.79 1004.28 1004.20 1003.93 1004.18 1005.43 1006.18 1005.02 1006.41 1005.57 1006.88 1007.77 1008.40 1008.25 1008.57 1009.49 1011.16 1012.36 1013.04 1014.11
1017.65 1017.35 1017.06 1016.83 1016.57 1016.28 1015.11 1014.02 1014.22 1013.17 1012.07 1010.11 1008.61 1007.12 1005.91 1005.40 1005.52 1005.29 1005.10 1004.97 1004.73 1004.52 1004.10 1003.53 1003.25 1002.96 1003.28 1003.39 1003.09 1003.20 1004.30 1004.72 1005.48 1005.74 1006.11 1007.63 1008.94 1009.79 1011.20 1011.56 1010.15 1011.03 1011.92 1013.28 1014.18
1017.51 1017.13 1016.73 1016.52 1016.29 1016.16 1015.69 1012.57 1010.86 1010.61 1009.63 1008.17 1007.38 1006.24 1005.77 1005.42 1005.07 1004.83 1004.96 1005.10 1004.62 1004.05 1003.70 1003.22 1002.74 1002.49 1002.58 1002.95 1003.20 1003.66 1004.70 1005.50 1006.19 1006.06 1007.02 1008.00 1012.80 1012.99 1013.42 1013.05 1011.54 1011.69 1011.67 1013.35 1014.52
1017.30 1016.95 1016.67 1016.41 1016.12 1015.73 1013.45 1011.25 1010.07 1009.84 1009.00 1006.61 1006.24 1005.59 1005.25 1005.22 1004.45 1004.27 1004.77 1004.42 1004.06 1003.65 1002.89 1002.50 1002.84 1002.88 1002.89 1002.88 1003.43 1004.34 1004.69 1005.38 1005.89 1007.23 1009.93 1012.47 1015.28 1016.97 1017.00 1016.22 1016.34 1012.60 1010.64 1012.54 1014.12
1016.98 1016.68 1016.55 1016.26 1016.13 1012.13 1011.05 1010.25 1009.90 1009.72 1008.69 1005.84 1005.54 1005.07 1004.82 1004.70 1004.24 1003.95 1004.29 1003.77 1003.18 1002.92 1002.14 1002.51 1002.66 1002.90 1002.92 1003.30 1003.62 1003.99 1004.99 1005.77 1006.79 1008.37 1012.72 1015.30 1017.22 1018.76 1019.22 1018.98 1016.56 1013.51 1013.29 1013.65 1014.24
1016.79 1016.45 1016.22 1016.51 1014.87 1011.84 1010.43 1010.00 1010.08 1010.07 1007.12 1005.02 1004.85 1004.55 1004.52 1004.58 1003.97 1003.66 1003.83 1003.76 1003.12 1002.43 1002.66 1002.48 1002.51 1002.75 1003.31 1004.02 1004.45 1004.55 1005.27 1006.74 1008.63 1010.93 1013.24 1014.76 1015.19 1015.63 1017.28 1017.45 1015.32 1013.77 1013.70 1013.73 1014.19
1016.59 1016.25 1016.22 1015.63 1014.34 1011.68 1010.33 1010.31 1010.39 1009.43 1005.51 1004.13 1004.36 1004.49 1004.50 1004.37 1003.88 1003.90 1004.26 1004.02 1003.36 1002.89 1002.67 1002.84 1002.82 1003.40 1003.95 1004.13 1004.55 1004.93 1005.77 1006.59 1008.34 1010.68 1012.78 1011.84 1014.31 1015.29 1015.61 1015.01 1014.15 1013.34 1013.33 1013.53 1013.57
1016.47 1016.25 1016.23 1014.16 1011.67 1010.29 1010.28 1010.10 1009.44 1007.03 1004.16 1003.78 1003.95 1004.29 1004.31 1004.28 1003.85 1003.87 1004.31 1004.08 1003.72 1003.31 1002.87 1002.94 1003.26 1003.79 1004.29 1004.13 1004.75 1005.03 1005.25 1006.34 1008.53 1009.02 1009.77 1011.69 1013.34 1012.86 1013.21 1013.44 1012.69 1012.56 1012.99 1013.29 1013.68
1016.45 1016.32 1014.43 1013.37 1011.74 1011.08 1010.79 1009.87 1007.99 1004.89 1003.75 1003.25 1003.41 1004.06 1004.21 1004.27 1003.95 1003.86 1004.17 1004.01 1004.02 1003.67 1003.79 1003.28 1004.29 1004.11 1004.46 1004.62 1004.98 1005.08 1005.21 1006.08 1007.27 1008.04 1009.58 1010.57 1012.84 1013.78 1012.18 1012.40 1012.48 1012.56 1013.21 1013.71 1014.31
1016.31 1014.89 1013.26 1011.90 1011.82 1011.59 1010.80 1008.85 1006.13 1004.43 1003.79 1003.71 1003.46 1003.56 1003.74 1004.00 1004.20 1004.24 1004.16 1003.81 1003.66 1003.66 1004.13 1005.39 1004.73 1004.69 1005.00 1004.96 1005.26 1005.35 1005.50 1006.19 1006.85 1006.83 1008.56 1011.44 1013.78 1012.90 1012.60 1012.12 1012.14 1012.64 1013.40 1014.13 1014.51
1015.57 1012.93 1010.94 1010.59 1011.25 1011.40 1010.40 1007.98 1006.10 1005.45 1005.05 1004.67 1003.98 1003.73 1003.66 1003.95 1004.49 1004.41 1004.01 1003.72 1003.48 1003.68 1004.13 1005.15 1004.84 1004.71 1005.18 1005.25 1005.31 1005.57 1005.99 1005.94 1006.44 1007.07 1008.03 1010.14 1012.09 1011.52 1011.77 1011.58 1011.99 1012.49 1013.10 1014.08 1014.38
1015.42 1011.95 1010.69 1010.40 1011.36 1010.82 1009.24 1007.00 1005.68 1005.55 1005.87 1005.64 1004.69 1004.21 1003.93 1004.28 1004.45 1004.35 1003.94 1003.60 1003.72 1003.92 1004.70 1004.86 1005.22 1005.47 1005.45 1005.83 1005.62 1005.54 1005.60 1006.51 1007.20 1007.88 1008.51 1008.94 1009.95 1009.74 1010.49 1011.35 1011.81 1012.30 1013.10 1013.89 1014.27
1014.20 1011.23 1010.34 1010.48 1010.72 1009.77 1008.53 1007.06 1006.50 1005.50 1005.81 1005.94 1005.60 1005.03 1004.33 1004.22 1004.41 1004.32 1003.99 1003.70 1004.25 1004.93 1005.11 1005.43 1005.71 1006.10 1007.36 1007.52 1006.54 1006.45 1006.64 1007.24 1008.09 1008.54 1008.79 1009.39 1012.13 1010.63 1010.49 1011.31 1011.99 1012.67 1013.47 1014.35 1014.84
1013.42 1010.69 1010.43 1010.37 1009.55 1008.73 1008.08 1006.74 1006.12 1005.96 1005.48 1005.64 1005.60 1005.06 1004.59 1004.62 1004.83 1004.42 1004.83 1005.16 1005.10 1005.62 1006.27 1006.18 1006.49 1006.87 1008.22 1008.47 1007.71 1006.67 1006.97 1007.60 1008.20 1008.83 1009.53 1009.56 1010.58 1011.22 1010.87 1011.60 1012.26 1012.84 1013.94 1014.57 1014.93
1013.26 1010.02 1010.06 1010.14 1009.11 1008.69 1007.43 1006.62 1006.02 1006.12 1005.86 1005.54 1005.56 1005.41 1005.23 1005.07 1004.98 1004.74 1005.14 1005.77 1006.06 1006.19 1007.06 1007.18 1007.01 1007.06 1008.23 1007.58 1007.07 1006.63 1007.05 1007.34 1008.10 1008.64 1008.93 1009.45 1010.05 1010.70 1010.99 1011.23 1011.97 1012.97 1013.86 1014.13 1014.85
1013.17 1009.84 1008.54 1008.99 1008.90 1008.36 1007.36 1006.44 1006.07 1005.50 1005.94 1005.99 1005.74 1005.50 1005.53 1005.37 1005.01 1004.94 1005.03 1005.98 1006.60 1007.07 1007.28 1007.33 1007.41 1007.31 1006.87 1007.03 1006.99 1006.62 1006.69 1007.03 1007.83 1008.53 1009.11 1009.39 1010.12 1010.81 1011.27 1012.30 1012.39 1013.19 1013.83 1014.22 1014.94
1012.82 1010.85 1009.47 1008.35 1008.27 1007.88 1007.16 1006.24 1005.77 1005.28 1005.27 1005.55 1005.73 1005.44 1005.54 1005.44 1005.23 1005.06 1005.12 1005.80 1006.49 1007.35 1007.26 1007.48 1007.57 1007.50 1007.10 1006.89 1007.03 1006.87 1006.67 1007.34 1007.86 1008.70 1009.14 1010.00 1010.55 1010.95 1011.29 1011.86 1012.83 1013.31 1013.76 1014.35 1015.33
1013.03 1011.89 1010.94 1008.76 1008.16 1007.67 1006.96 1006.47 1005.74 1005.23 1005.45 1005.54 1005.45 1005.43 1005.11 1005.16 1005.09 1005.01 1004.90 1005.41 1005.95 1006.81 1007.18 1007.59 1007.78 1007.76 1007.55 1007.36 1007.10 1007.04 1006.78 1006.85 1008.01 1008.78 1009.50 1009.97 1010.72 1010.97 1011.35 1011.85 1012.62 1013.14 1013.69 1014.65 1015.67
Thickness
5751 5753 5756 5760 5763 5767 5771 5775 5778 5781 5783 5786 5792 5796 5799 5802 5815 5825 5829 5842 5846 5847 5848 5852 5857 5859 5867 5860 5876 5885 5828 5791 5819 5821 5819 5848 5798 5817 5812 5786 5817 5816 5818 5813 5813
5749 5752 5755 5759 5762 5766 5771 5775 5778 5782 5785 5788 5793 5798 5800 5803 5818 5830 5844 5848 5851 5849 5845 5844 5846 5863 5854 5866 5882 5867 5836 5848 5866 5850 5821 5783 5796 5794 5785 5779 5786 5804 5817 5810 5807
5748 5752 5755 5758 5762 5766 5771 5775 5779 5784 5786 5790 5795 5800 5802 5804 5818 5837 5849 5850 5854 5851 5850 5859 5866 5863 5854 5883 5880 5875 5850 5871 5868 5855 5830 5813 5777 5783 5786 5766 5775 5781 5802 5802 5790
5746 5750 5754 5758 5761 5766 5771 5776 5780 5785 5788 5791 5796 5802 5809 5812 5805 5845 5851 5853 5854 5854 5850 5857 5858 5848 5853 5866 5879 5854 5870 5868 5868 5848 5828 5802 5796 5765 5828 5795 5805 5798 5813 5788 5777
5744 5747 5753 5758 5762 5766 5771 5776 5781 5785 5788 5791 5796 5801 5814 5817 5831 5855 5854 5854 5856 5853 5846 5854 5851 5861 5852 5875 5872 5863 5854 5870 5860 5835 5816 5810 5793 5754 5823 5827 5820 5824 5802 5777 5766
5740 5745 5752 5758 5762 5767 5772 5777 5781 5785 5789 5792 5795 5800 5809 5804 5864 5862 5860 5860 5862 5855 5853 5863 5859 5870 5865 5869 5860 5854 5849 5851 5839 5823 5823 5815 5819 5826 5824 5832 5817 5811 5799 5787 5775
5739 5745 5751 5756 5762 5767 5773 5778 5781 5784 5789 5793 5795 5798 5808 5823 5865 5866 5865 5864 5871 5865 5856 5873 5876 5860 5870 5851 5861 5853 5830 5836 5809 5818 5796 5815 5799 5801 5822 5818 5803 5792 5791 5785 5779
5739 5745 5750 5755 5761 5768 5774 5779 5782 5785 5789 5794 5795 5801 5809 5863 5866 5864 5868 5866 5877 5877 5874 5878 5878 5864 5859 5874 5848 5828 5812 5782 5817 5833 5815 5819 5776 5802 5819 5805 5789 5781 5781 5774 5769
5739 5744 5749 5754 5759 5767 5774 5779 5785 5786 5791 5794 5800 5804 5816 5861 5848 5866 5870 5858 5867 5873 5875 5878 5870 5854 5859 5832 5810 5817 5779 5772 5804 5832 5815 5811 5786 5793 5815 5802 5786 5778 5772 5769 5763
5741 5745 5749 5753 5759 5766 5773 5781 5787 5788 5796 5799 5809 5800 5829 5834 5856 5865 5874 5872 5860 5861 5856 5856 5851 5838 5832 5823 5793 5809 5791 5788 5821 5818 5833 5807 5797 5806 5810 5798 5787 5774 5764 5761 5752
5737 5741 5746 5751 5756 5762 5775 5790 5790 5789 5798 5805 5819 5826 5839 5856 5864 5854 5867 5860 5862 5853 5827 5853 5836 5826 5822 5843 5852 5853 5831 5820 5824 5837 5825 5806 5798 5799 5782 5754 5783 5778 5770 5757 5748
5736 5742 5746 5751 5756 5760 5767 5788 5801 5806 5791 5824 5828 5837 5849 5854 5831 5847 5867 5836 5839 5824 5843 5841 5831 5859 5865 5858 5847 5839 5815 5805 5816 5833 5823 5799 5741 5760 5760 5728 5784 5770 5760 5745 5740
5737 5742 5746 5750 5755 5762 5779 5795 5815 5817 5790 5820 5832 5833 5839 5847 5834 5839 5853 5847 5837 5830 5843 5841 5844 5861 5853 5849 5833 5824 5818 5815 5818 5818 5790 5750 5707 5716 5725 5740 5723 5775 5757 5758 5742
5737 5743 5746 5750 5752 5786 5786 5806 5813 5816 5770 5803 5814 5830 5843 5846 5827 5863 5864 5853 5849 5838 5860 5848 5863 5849 5844 5834 5839 5819 5833 5828 5807 5794 5723 5736 5705 5697 5701 5692 5704 5763 5756 5745 5739
5737 5742 5747 5748 5760 5777 5794 5807 5810 5800 5747 5813 5817 5856 5845 5829 5840 5843 5871 5852 5835 5854 5853 5842 5848 5843 5827 5825 5835 5820 5836 5812 5789 5763 5748 5731 5724 5729 5716 5704 5716 5748 5747 5745 5738
5735 5741 5745 5750 5760 5783 5799 5803 5795 5754 5751 5803 5822 5815 5816 5828 5835 5845 5842 5858 5860 5847 5855 5849 5871 5849 5834 5842 5837 5841 5816 5813 5791 5766 5711 5744 5725 5679 5715 5727 5725 5752 5749 5743 5742
5732 5737 5742 5755 5769 5793 5797 5785 5750 5747 5818 5800 5803 5815 5813 5811 5822 5829 5821 5820 5815 5807 5818 5842 5840 5849 5847 5828 5833 5827 5811 5779 5750 5757 5737 5756 5725 5742 5755 5748 5754 5753 5747 5747 5743
5727 5733 5750 5758 5774 5784 5781 5761 5736 5795 5804 5828 5820 5814 5800 5813 5818 5825 5816 5809 5830 5831 5811 5811 5784 5830 5841 5826 5808 5810 5811 5780 5743 5755 5757 5765 5737 5714 5775 5775 5771 5766 5753 5744 5736
5725 5740 5750 5766 5770 5776 5761 5744 5770 5801 5815 5808 5816 5802 5802 5813 5813 5813 5812 5816 5832 5839 5805 5779 5793 5835 5834 5837 5826 5805 5793 5813 5784 5802 5764 5750 5718 5750 5761 5766 5766 5755 5746 5735 5731
5728 5745 5758 5772 5771 5765 5750 5746 5778 5800 5806 5806 5788 5808 5794 5803 5798 5802 5809 5832 5833 5846 5846 5805 5790 5828 5827 5835 5832 5815 5820 5784 5792 5758 5755 5749 5720 5733 5746 5756 5756 5746 5738 5731 5730
5722 5733 5758 5769 5765 5751 5741 5769 5792 5805 5802 5790 5793 5797 5807 5798 5803 5801 5811 5833 5840 5838 5840 5828 5810 5806 5824 5805 5801 5807 5803 5797 5793 5784 5757 5755 5749 5782 5768 5760 5755 5751 5742 5731 5726
5723 5719 5758 5763 5733 5750 5750 5775 5778 5796 5802 5794 5799 5798 5803 5810 5801 5806 5812 5827 5840 5835 5813 5827 5809 5789 5773 5798 5819 5812 5797 5792 5758 5754 5772 5766 5706 5779 5779 5770 5761 5748 5741 5729 5723
5713 5732 5754 5753 5723 5742 5761 5774 5787 5786 5793 5792 5789 5805 5814 5801 5789 5808 5809 5825 5831 5823 5807 5818 5796 5771 5755 5776 5799 5797 5800 5795 5787 5778 5752 5744 5739 5770 5775 5764 5758 5746 5733 5728 5723
5713 5719 5733 5740 5750 5741 5753 5764 5771 5791 5790 5799 5795 5803 5799 5794 5808 5802 5799 5811 5820 5820 5802 5810 5798 5784 5748 5772 5796 5789 5790 5795 5782 5757 5761 5757 5749 5757 5759 5754 5753 5742 5735 5731 5723
5711 5724 5742 5722 5734 5747 5760 5768 5765 5772 5789 5794 5788 5794 5790 5780 5792 5793 5805 5801 5807 5796 5807 5806 5778 5792 5805 5801 5800 5799 5795 5794 5777 5775 5755 5765 5753 5752 5755 5745 5748 5741 5734 5729 5720
5698 5707 5731 5740 5746 5747 5752 5763 5768 5780 5785 5780 5779 5793 5794 5783 5791 5787 5802 5796 5789 5798 5799 5805 5778 5789 5785 5802 5797 5785 5796 5788 5783 5776 5772 5759 5749 5767 5767 5759 5743 5736 5731 5724 5714
5707 5718 5719 5729 5737 5740 5749 5759 5771 5786 5789 5793 5793 5790 5790 5797 5811 5816 5822 5814 5812 5795 5790 5788 5781 5775 5763 5787 5789 5768 5787 5792 5781 5781 5770 5746 5753 5765 5754 5749 5741 5736 5731 5720 5711